Temp_Advection
nan nan nan nan nan nan nan nan nan nan nan nan nan nan nan nan nan nan nan nan nan nan
nan -0 -0 0 -0 -0 -0 -0 0 0 0 0 1 0 0 -0 0 0 -0 0 0 nan
nan 0 -0 -0 -0 -0 -0 -0 -0 0 0 0 0 0 0 -0 0 0 0 0 0 nan
nan -0 -0 -0 -0 -0 -0 -0 -0 -0 0 0 0 0 0 0 0 0 0 0 0 nan
nan -0 -0 -0 -0 -0 -0 -0 -0 -0 -0 0 0 0 0 0 0 0 0 0 0 nan
nan 0 0 -0 -0 -0 -0 -0 -0 -0 -0 0 0 0 0 0 0 0 0 0 0 nan
nan -0 -0 -0 -0 -0 -0 -0 -0 -0 -0 -0 0 -0 0 0 0 0 0 0 0 nan
nan -0 -0 -0 -0 -0 -0 -0 -0 -0 -0 -0 -0 -0 -0 -0 -0 0 0 0 0 nan
nan -0 -0 -0 -0 -0 -0 -0 -0 -0 -0 -0 0 0 -0 -0 -0 -0 -0 -0 0 nan
nan -0 -0 -0 -0 -0 -0 -0 -0 -0 -0 -0 0 0 0 -0 -0 -0 -0 -0 -0 nan
nan -0 -0 -0 -0 -0 -0 -0 -0 -0 -0 -0 0 0 -0 -0 -0 -0 -0 -0 -0 nan
nan -0 -0 -0 -0 -0 -0 -0 -0 -0 -0 -0 0 0 0 -0 -0 -0 -0 0 0 nan
nan -0 -0 -0 -0 -0 -0 -0 -0 -0 -0 -0 -0 0 0 0 -0 -0 -0 -0 0 nan
nan nan nan nan nan nan nan nan nan nan nan nan nan nan nan nan nan nan nan nan nan nan
Wind_Speed
11 10 10 11 13 16 18 19 18 17 18 19 20 19 18 18 16 16 16 15 16 15
11 11 12 14 16 18 19 19 18 18 18 18 19 20 19 19 17 17 17 17 17 18
12 14 15 16 18 19 19 18 17 17 17 17 17 17 18 18 17 18 17 18 19 19
13 14 16 17 18 18 17 16 16 16 16 15 15 15 17 17 18 19 19 19 20 20
13 15 16 16 16 15 15 15 15 15 15 14 14 14 16 17 18 20 21 20 21 21
14 15 15 14 14 15 15 15 15 15 16 16 16 16 17 18 19 20 21 21 22 22
13 13 13 14 15 15 16 16 16 16 17 17 18 18 18 19 20 21 21 22 23 23
13 14 15 15 15 16 17 17 17 18 18 19 20 20 20 20 19 20 21 21 22 23
14 15 15 15 16 17 18 18 19 19 20 20 20 20 20 21 21 21 22 22 21 21
15 16 16 17 18 19 19 19 19 20 20 20 20 20 20 22 22 22 22 22 22 21
16 16 16 17 18 18 19 19 19 19 19 21 20 21 21 21 22 21 21 21 21 21
15 16 17 18 18 18 19 18 19 18 18 19 20 20 21 22 22 23 22 21 21 21
15 16 17 17 18 17 18 18 18 17 17 18 20 19 21 23 24 25 25 23 21 20
16 17 17 17 16 16 16 16 16 18 18 20 22 23 23 23 24 26 27 25 23 20
Wind_Direction
247 273 296 302 304 306 308 308 306 299 294 292 293 295 291 284 285 288 290 293 293 291
263 285 291 290 295 302 305 306 305 303 299 293 289 289 287 286 287 285 288 291 290 289
264 273 286 296 300 303 304 305 306 304 301 296 289 285 284 286 287 286 289 290 289 289
272 286 293 298 300 301 302 305 307 308 307 304 299 291 286 286 288 289 290 289 289 288
283 289 294 298 300 302 304 306 308 308 306 304 299 291 286 287 287 288 289 291 289 290
289 294 299 302 304 304 305 306 307 306 305 305 300 296 293 290 288 286 287 288 287 289
296 299 299 300 301 302 303 304 304 303 303 303 301 301 298 294 292 290 289 288 288 288
302 302 302 302 302 300 300 301 303 303 304 305 305 304 301 299 295 293 293 292 291 290
304 302 300 298 299 301 303 304 305 306 306 305 305 306 304 302 301 300 300 299 296 293
303 303 303 302 303 305 305 306 306 307 305 304 304 303 302 301 299 299 300 301 300 297
300 300 301 302 304 303 303 304 305 306 308 308 309 306 303 300 299 299 299 300 299 298
306 305 304 303 303 304 304 305 308 311 313 314 316 313 309 305 304 301 302 301 298 295
302 302 302 303 306 308 308 312 314 317 320 322 322 321 315 313 311 308 307 303 300 291
307 305 306 306 306 307 308 311 316 318 319 320 320 319 316 312 308 306 305 303 302 295
Height
1536 1536 1536 1535 1534 1532 1530 1528 1526 1524 1522 1520 1518 1518 1517 1517 1516 1515 1513 1512 1512 1511
1534 1534 1533 1531 1530 1528 1525 1523 1521 1520 1518 1516 1514 1513 1512 1511 1511 1510 1509 1508 1507 1506
1531 1530 1528 1527 1525 1523 1521 1519 1517 1515 1513 1512 1510 1509 1508 1507 1507 1505 1504 1503 1502 1500
1527 1526 1525 1523 1521 1519 1517 1515 1513 1511 1509 1507 1506 1505 1503 1502 1501 1500 1499 1497 1497 1496
1524 1523 1521 1520 1518 1516 1514 1512 1510 1508 1506 1503 1501 1500 1498 1497 1496 1494 1493 1492 1491 1489
1520 1519 1518 1516 1515 1513 1512 1509 1507 1505 1503 1500 1499 1496 1495 1493 1491 1489 1488 1486 1484 1483
1516 1515 1514 1512 1511 1509 1507 1505 1503 1501 1499 1497 1495 1492 1490 1488 1486 1484 1482 1481 1479 1477
1511 1510 1509 1508 1506 1505 1503 1501 1498 1496 1495 1493 1490 1488 1486 1484 1481 1479 1477 1475 1473 1471
1508 1507 1505 1503 1501 1500 1498 1496 1494 1492 1490 1487 1486 1484 1481 1478 1476 1474 1471 1468 1467 1464
1504 1503 1500 1499 1497 1495 1492 1490 1489 1487 1485 1482 1480 1478 1475 1473 1470 1468 1466 1463 1460 1458
1499 1498 1496 1494 1492 1491 1488 1486 1484 1481 1479 1478 1477 1473 1470 1466 1464 1461 1459 1457 1454 1451
1494 1493 1491 1490 1488 1485 1482 1481 1479 1476 1473 1470 1469 1468 1465 1462 1458 1455 1452 1451 1449 1447
1489 1487 1485 1484 1481 1480 1477 1475 1474 1471 1469 1467 1464 1461 1459 1457 1453 1450 1447 1446 1443 1442
1484 1483 1480 1478 1477 1475 1473 1471 1469 1466 1465 1462 1459 1456 1453 1451 1447 1445 1442 1439 1437 1436